CW8946 Weather Reports


time (UTC)temp
C
wind
direction
speed
KPH
gust
KPH
rain 1hr
cm
rain 24hr
cm
rain mn
cm
humidity
%
barometer
mb
20260505124631 12 360 4.8 6.4 0.00 0.00 0.00 65 1006.1
20260505123617 12 360 3.2 6.4 0.00 0.00 0.00 67 1006.1
20260505122625 12 360 1.6 3.2 0.00 0.00 0.00 68 1006.0
20260505121651 12 360 1.6 6.4 0.00 0.00 0.00 68 1006.2
20260505120621 12 360 3.2 6.4 0.00 0.00 0.00 68 1006.1
20260505115619 12 360 4.8 6.4 0.00 0.00 0.00 67 1006.0
20260505114646 12 360 4.8 8.0 0.00 0.00 0.00 66 1006.0
20260505113628 12 178 3.2 6.4 0.00 0.00 0.00 65 1006.0
20260505112633 12 178 1.6 3.2 0.00 0.00 0.00 64 1006.1
20260505111624 13 178 1.6 8.0 0.00 0.00 0.00 63 1005.9
20260505110615 13 360 4.8 9.7 0.00 0.00 0.00 62 1005.9
20260505101624 13 360 3.2 6.4 0.00 0.00 0.00 63 1005.9
20260505100629 13 360 4.8 8.0 0.00 0.00 0.00 63 1006.0
20260505095628 13 360 6.4 14.5 0.00 0.00 0.00 62 1006.0
20260505094641 13 360 6.4 12.9 0.00 0.00 0.00 61 1006.0
20260505093648 13 360 6.4 14.5 0.00 0.00 0.00 60 1006.1
20260505092627 13 360 8.0 17.7 0.00 0.00 0.00 59 1006.1
20260505091653 13 360 6.4 14.5 0.00 0.00 0.00 59 1006.2
20260505090636 13 360 8.0 14.5 0.00 0.00 0.00 58 1006.2
20260505085615 13 360 6.4 14.5 0.00 0.00 0.00 58 1006.2
20260505084620 14 360 6.4 14.5 0.00 0.00 0.00 56 1006.2
20260505083648 14 360 8.0 16.1 0.00 0.00 0.00 56 1006.3
20260505082615 14 360 8.0 20.9 0.00 0.00 0.00 56 1006.3
20260505081626 13 360 8.0 12.9 0.00 0.00 0.00 58 1006.2
20260505080625 13 360 8.0 12.9 0.00 0.00 0.00 59 1006.4
20260505075647 13 360 4.8 12.9 0.00 0.00 0.00 59 1006.5
20260505074612 14 360 6.4 16.1 0.00 0.00 0.00 59 1006.6
20260505073616 14 360 6.4 12.9 0.00 0.00 0.00 59 1006.6
20260505072624 14 360 6.4 9.7 0.00 0.00 0.00 60 1006.8
20260505071615 14 360 4.8 9.7 0.00 0.00 0.00 60 1006.8
20260505070615 14 360 3.2 6.4 0.00 0.00 0.00 61 1007.0
20260505065627 14 360 3.2 8.0 0.00 0.00 0.00 60 1006.9
20260505064639 15 360 3.2 8.0 0.00 0.00 0.00 60 1007.0
20260505063628 15 360 4.8 9.7 0.00 0.00 0.00 60 1006.9
20260505062615 15 360 6.4 9.7 0.00 0.00 0.00 59 1006.7
20260505061622 15 360 6.4 14.5 0.00 0.00 0.00 59 1006.7
20260505060617 15 360 11.3 19.3 0.00 0.00 0.00 59 1006.7
20260505055627 15 360 11.3 20.9 0.00 0.00 0.00 59 1006.6
20260505054614 15 360 6.4 16.1 0.00 0.00 0.00 57 1006.4
20260505053621 15 360 3.2 4.8 0.00 0.00 0.00 56 1006.0
20260505052614 15 360 1.6 6.4 0.00 0.00 0.00 55 1006.0
20260505051638 16 360 3.2 9.7 0.00 0.00 0.00 53 1005.8
20260505050620 16 151 4.8 8.0 0.00 0.00 0.00 52 1005.7
20260505041626 16 360 8.0 14.5 0.00 0.00 0.00 46 1005.0
20260505040613 17 360 6.4 9.7 0.00 0.00 0.00 46 1004.6
20260505035629 17 360 6.4 12.9 0.00 0.00 0.00 46 1004.6
20260505034616 17 360 4.8 12.9 0.00 0.00 0.00 45 1004.6
20260505033621 17 360 4.8 6.4 0.00 0.00 0.00 42 1004.4
20260505032631 17 360 1.6 4.8 0.00 0.00 0.00 41 1004.3
20260505031619 18 360 3.2 4.8 0.00 0.00 0.00 39 1004.1
20260505030628 18 178 4.8 6.4 0.00 0.00 0.00 38 1003.9
20260505025629 18 360 4.8 9.7 0.00 0.00 0.00 38 1003.8
20260505024620 18 360 6.4 12.9 0.00 0.00 0.00 37 1003.6
20260505023645 18 360 6.4 12.9 0.00 0.00 0.00 37 1003.7
20260505022617 18 360 8.0 14.5 0.00 0.00 0.00 37 1003.5
20260505021626 19 360 9.7 16.1 0.00 0.00 0.00 36 1003.5
20260505020616 20 360 8.0 12.9 0.00 0.00 0.00 36 1003.4
20260505015613 20 360 8.0 12.9 0.00 0.00 0.00 35 1003.4
20260505014620 20 360 9.7 16.1 0.00 0.00 0.00 34 1003.3
20260505013627 21 360 8.0 12.9 0.00 0.00 0.00 33 1003.2
20260505012632 21 360 9.7 14.5 0.00 0.00 0.00 33 1003.2
20260505011621 21 360 9.7 19.3 0.00 0.00 0.00 34 1003.4
20260505010618 21 360 16.1 27.4 0.00 0.00 0.00 31 1003.4
20260505005630 22 360 14.5 20.9 0.00 0.00 0.00 32 1003.5
20260505004617 22 360 12.9 24.1 0.00 0.00 0.00 31 1003.6
20260505003626 22 360 14.5 20.9 0.00 0.00 0.00 30 1003.7
20260505002615 22 360 14.5 20.9 0.00 0.00 0.00 30 1003.8
20260505001644 23 360 14.5 22.5 0.00 0.00 0.00 30 1003.8
20260505000625 22 360 11.3 25.7 0.00 0.00 0.00 30 1003.9
20260504235623 22 360 16.1 25.7 0.00 0.00 0.00 30 1003.9
20260504234614 23 360 16.1 24.1 0.00 0.00 0.00 30 1004.0
20260504233626 23 360 16.1 27.4 0.00 0.00 0.00 28 1004.0
20260504232615 23 360 16.1 24.1 0.00 0.00 0.00 29 1004.0
20260504231647 22 360 17.7 27.4 0.00 0.00 0.00 31 1004.1
20260504230630 22 360 19.3 32.2 0.00 0.00 0.00 31 1004.1
20260504225628 23 360 17.7 30.6 0.00 0.00 0.00 31 1004.3
20260504224618 22 360 19.3 35.4 0.00 0.00 0.00 30 1004.1
20260504223629 22 360 24.1 38.6 0.00 0.00 0.00 30 1004.1
20260504222632 23 360 22.5 35.4 0.00 0.00 0.00 30 1004.1
20260504221619 25 360 9.7 19.3 0.00 0.00 0.00 23 1004.1
20260504220629 24 227 8.0 16.1 0.00 0.00 0.00 21 1004.4
20260504215648 25 360 4.8 20.9 0.00 0.00 0.00 22 1004.3
20260504214612 25 360 9.7 16.1 0.00 0.00 0.00 22 1004.4
20260504213621 25 360 8.0 16.1 0.00 0.00 0.00 21 1004.6
20260504212629 25 306 3.2 6.4 0.00 0.00 0.00 21 1004.8
20260504211617 24 360 4.8 12.9 0.00 0.00 0.00 22 1005.1
20260504210622 23 360 6.4 14.5 0.00 0.00 0.00 23 1005.1
20260504205644 24 360 11.3 17.7 0.00 0.00 0.00 22 1005.2
20260504204631 25 360 8.0 16.1 0.00 0.00 0.00 22 1005.3
20260504203617 25 360 6.4 16.1 0.00 0.00 0.00 23 1005.5
20260504202624 24 360 6.4 14.5 0.00 0.00 0.00 23 1005.5
20260504201619 23 360 6.4 12.9 0.00 0.00 0.00 24 1005.5
20260504200615 23 327 8.0 16.1 0.00 0.00 0.00 24 1005.7
20260504195612 23 217 3.2 12.9 0.00 0.00 0.00 24 1005.7
20260504194619 23 304 6.4 25.7 0.00 0.00 0.00 22 1005.9
20260504193613 23 307 3.2 14.5 0.00 0.00 0.00 25 1006.0
20260504192643 23 360 8.0 16.1 0.00 0.00 0.00 26 1006.3
20260504191615 22 360 8.0 14.5 0.00 0.00 0.00 26 1006.1
20260504190636 22 360 1.6 14.5 0.00 0.00 0.00 25 1006.4
20260504185614 22 360 9.7 19.3 0.00 0.00 0.00 26 1006.4
20260504184625 22 360 8.0 17.7 0.00 0.00 0.00 27 1006.7
20260504183650 22 360 4.8 17.7 0.00 0.00 0.00 27 1006.6
20260504182614 22 360 8.0 12.9 0.00 0.00 0.00 27 1006.7
20260504181620 22 360 11.3 19.3 0.00 0.00 0.00 27 1007.1
20260504180616 22 360 11.3 17.7 0.00 0.00 0.00 32 1006.9
20260504175615 21 82 3.2 8.0 0.00 0.00 0.00 29 1007.2
20260504174640 21 151 6.4 16.1 0.00 0.00 0.00 31 1007.2
20260504173627 21 207 12.9 16.1 0.00 0.00 0.00 34 1007.1
20260504172618 21 360 6.4 17.7 0.00 0.00 0.00 33 1007.2
20260504171629 21 360 3.2 9.7 0.00 0.00 0.00 33 1007.3
20260504170651 21 360 4.8 9.7 0.00 0.00 0.00 33 1007.5
20260504150612 18 360 8.0 16.1 0.00 0.00 0.00 43 1007.6
20260504140634 16 360 6.4 12.9 0.00 0.00 0.00 47 1007.7